Weather History for West Cameron, TX

Change the Weather History Date:

Monday, August 11, 2014

  Actual Average Record
Temperature  
Mean Temperature 84 °F -  
Max Temperature 89 °F - - ()
Min Temperature 78 °F - - ()
Cooling Degree Days 18    
Growing Degree Days 34 (Base 50)    
Moisture  
Dew Point 76 °F    
Average Humidity 71    
Maximum Humidity 89    
Minimum Humidity 66    
Precipitation  
Precipitation 0.00 in - - ()
Sea Level Pressure  
Sea Level Pressure 30.03 in    
Wind  
Wind Speed 7 mph (SW)    
Max Wind Speed 38 mph    
Max Gust Speed 44 mph    
Visibility 10 miles    
Events      
T = Trace of Precipitation, MM = Missing Value Source: NWS Daily Summary

Daily Weather History Graph

Daily Weather History Graph

Search for Another Location

Airport:

Trip Planner

Search our weather history database for the weather conditions in past years. The results will help you decide how hot, cold, wet, or windy it might be!

Date:

Astronomy

Aug. 11, 2014 Rise Set
Actual Time 6:39 AM CDT 7:56 PM CDT
Civil Twilight 6:14 AM CDT 8:21 PM CDT
Nautical Twilight 5:45 AM CDT 8:51 PM CDT
Astronomical Twilight 5:14 AM CDT 9:21 PM CDT
Moon 8:37 PM CDT (8/11) 7:36 AM CDT (8/11)
Length of Visible Light 14h 06m
Length of Day
13h 16m
Full, 99% of the Moon is Illuminated
Aug 11
Full
Aug 17
Last Quarter
Aug 25
New
Sep 2
First Quarter
Sep 8
Full

Hourly Weather History & Observations

Time (CDT) Temp. Heat Index Dew Point Humidity Pressure Visibility Wind Dir Wind Speed Gust Speed Precip Events Conditions
12:15 AM 86.0 °F 95.1 °F 75.2 °F 70% 30.04 in 10.0 mi South 8.1 mph - N/A   Clear
12:35 AM 86.0 °F 95.1 °F 75.2 °F 70% 30.04 in 10.0 mi South 8.1 mph - N/A   Clear
12:55 AM 86.0 °F 95.1 °F 75.2 °F 70% 30.04 in 10.0 mi South 9.2 mph - N/A   Partly Cloudy
1:15 AM 86.0 °F 95.1 °F 75.2 °F 70% 30.04 in 10.0 mi SSE 6.9 mph - N/A   Clear
1:35 AM 86.0 °F 96.9 °F 77.0 °F 74% 30.04 in 10.0 mi SSE 4.6 mph - N/A   Mostly Cloudy
1:55 AM 86.0 °F 96.9 °F 77.0 °F 74% 30.03 in 10.0 mi South 9.2 mph - N/A   Scattered Clouds
2:15 AM 86.0 °F 95.1 °F 75.2 °F 70% 30.03 in 10.0 mi South 9.2 mph - N/A   Partly Cloudy
2:35 AM 86.0 °F 95.1 °F 75.2 °F 70% 30.03 in 10.0 mi South 8.1 mph - N/A   Partly Cloudy
3:15 AM 86.0 °F 95.1 °F 75.2 °F 70% 30.02 in 10.0 mi South 8.1 mph - N/A   Mostly Cloudy
3:35 AM 86.0 °F 95.1 °F 75.2 °F 70% 30.02 in 10.0 mi South 8.1 mph - N/A   Partly Cloudy
3:55 AM 86.0 °F 96.9 °F 77.0 °F 74% 30.02 in 10.0 mi South 9.2 mph - N/A   Partly Cloudy
4:15 AM 86.0 °F 95.1 °F 75.2 °F 70% 30.02 in 10.0 mi South 10.4 mph - N/A   Scattered Clouds
4:35 AM 86.0 °F 95.1 °F 75.2 °F 70% 30.01 in 10.0 mi South 10.4 mph - N/A   Clear
4:55 AM 86.0 °F 96.9 °F 77.0 °F 74% 30.01 in 10.0 mi South 10.4 mph - N/A   Partly Cloudy
5:15 AM 86.0 °F 96.9 °F 77.0 °F 74% 30.01 in 10.0 mi South 12.7 mph - N/A   Partly Cloudy
5:35 AM 84.2 °F 94.1 °F 77.0 °F 79% 30.01 in 10.0 mi Calm Calm - N/A   Mostly Cloudy
5:55 AM 84.2 °F 94.1 °F 77.0 °F 79% 30.01 in 10.0 mi Variable 4.6 mph - N/A   Partly Cloudy
6:15 AM 84.2 °F 92.3 °F 75.2 °F 74% 30.01 in 10.0 mi SW 3.5 mph - N/A   Clear
6:35 AM 86.0 °F 96.9 °F 77.0 °F 74% 30.02 in 10.0 mi SW 4.6 mph - N/A   Clear
6:55 AM 86.0 °F 96.9 °F 77.0 °F 74% 30.02 in 10.0 mi SW 4.6 mph - N/A   Clear
7:15 AM 87.8 °F 99.7 °F 77.0 °F 70% 30.02 in 10.0 mi Variable 4.6 mph - N/A   Clear
7:35 AM 87.8 °F 99.7 °F 77.0 °F 70% 30.02 in 10.0 mi SW 4.6 mph - N/A   Partly Cloudy
7:55 AM 86.0 °F 96.9 °F 77.0 °F 74% 30.02 in 10.0 mi SW 3.5 mph - N/A   Partly Cloudy
8:15 AM 86.0 °F 95.1 °F 75.2 °F 70% 30.03 in 10.0 mi Calm Calm - N/A   Partly Cloudy
8:35 AM 87.8 °F 97.6 °F 75.2 °F 66% 30.03 in 10.0 mi WSW 5.8 mph - N/A   Clear
8:55 AM 87.8 °F 97.6 °F 75.2 °F 66% 30.04 in 10.0 mi Variable 5.8 mph - N/A   Clear
9:15 AM 87.8 °F 97.6 °F 75.2 °F 66% 30.04 in 10.0 mi WSW 4.6 mph - N/A   Clear
9:35 AM 87.8 °F 97.6 °F 75.2 °F 66% 30.05 in 10.0 mi Variable 4.6 mph - N/A   Partly Cloudy
9:55 AM 87.8 °F 97.6 °F 75.2 °F 66% 30.05 in 10.0 mi Variable 4.6 mph - N/A   Clear
10:15 AM 87.8 °F 99.7 °F 77.0 °F 70% 30.06 in 10.0 mi West 5.8 mph - N/A   Partly Cloudy
10:35 AM 87.8 °F 97.6 °F 75.2 °F 66% 30.06 in 10.0 mi West 5.8 mph - N/A   Partly Cloudy
10:55 AM 87.8 °F 97.6 °F 75.2 °F 66% 30.07 in 10.0 mi West 6.9 mph - N/A   Partly Cloudy
11:15 AM 87.8 °F 97.6 °F 75.2 °F 66% 30.07 in 10.0 mi West 6.9 mph - N/A   Partly Cloudy
11:35 AM 87.8 °F 99.7 °F 77.0 °F 70% 30.07 in 10.0 mi WNW 5.8 mph - N/A   Partly Cloudy
11:55 AM 87.8 °F 99.7 °F 77.0 °F 70% 30.07 in 10.0 mi WNW 5.8 mph - N/A   Scattered Clouds
12:15 PM 87.8 °F 97.6 °F 75.2 °F 66% 30.07 in 10.0 mi West 6.9 mph - N/A   Clear
12:35 PM 87.8 °F 99.7 °F 77.0 °F 70% 30.08 in - West 5.8 mph - N/A   Clear
12:55 PM 87.8 °F 99.7 °F 77.0 °F 70% 30.07 in 10.0 mi WNW 5.8 mph - N/A   Clear
1:15 PM 87.8 °F 97.6 °F 75.2 °F 66% 30.07 in 10.0 mi WNW 6.9 mph - N/A   Partly Cloudy
1:35 PM 87.8 °F 99.7 °F 77.0 °F 70% 30.06 in 10.0 mi Calm Calm - N/A   Clear
1:55 PM 87.8 °F 99.7 °F 77.0 °F 70% 30.06 in 10.0 mi Variable 4.6 mph - N/A   Partly Cloudy
2:15 PM 87.8 °F 99.7 °F 77.0 °F 70% 30.05 in 10.0 mi Variable 4.6 mph - N/A   Clear
2:35 PM 87.8 °F 99.7 °F 77.0 °F 70% 30.04 in 10.0 mi West 6.9 mph - N/A   Partly Cloudy
2:55 PM 87.8 °F 99.7 °F 77.0 °F 70% 30.04 in 10.0 mi WSW 5.8 mph - N/A   Clear
3:15 PM 87.8 °F 99.7 °F 77.0 °F 70% 30.03 in 10.0 mi West 4.6 mph - N/A   Partly Cloudy
3:35 PM 87.8 °F 99.7 °F 77.0 °F 70% 30.02 in 10.0 mi WSW 4.6 mph - N/A   Partly Cloudy
3:55 PM 89.6 °F 102.2 °F 77.0 °F 66% 30.00 in 10.0 mi WSW 5.8 mph - N/A   Partly Cloudy
4:15 PM 87.8 °F 99.7 °F 77.0 °F 70% 29.99 in 10.0 mi Variable 3.5 mph - N/A   Partly Cloudy
4:55 PM 87.8 °F 99.7 °F 77.0 °F 70% 29.97 in 10.0 mi SW 4.6 mph - N/A   Clear
5:15 PM 87.8 °F 97.6 °F 75.2 °F 66% 29.97 in 10.0 mi WSW 4.6 mph - N/A   Clear
5:35 PM 87.8 °F 99.7 °F 77.0 °F 70% 29.97 in 10.0 mi West 3.5 mph - N/A   Clear
5:55 PM 87.8 °F 99.7 °F 77.0 °F 70% 29.97 in 10.0 mi WSW 4.6 mph - N/A   Clear
6:15 PM 87.8 °F 99.7 °F 77.0 °F 70% 29.97 in 10.0 mi WSW 4.6 mph - N/A   Clear
6:35 PM 86.0 °F 96.9 °F 77.0 °F 74% 29.98 in 10.0 mi West 4.6 mph - N/A   Clear
6:55 PM 86.0 °F 96.9 °F 77.0 °F 74% 29.99 in 10.0 mi West 4.6 mph - N/A   Clear
7:15 PM 86.0 °F 96.9 °F 77.0 °F 74% 29.99 in 10.0 mi West 4.6 mph - N/A   Clear
7:35 PM 86.0 °F 95.1 °F 75.2 °F 70% 29.99 in 10.0 mi WSW 4.6 mph - N/A   Clear
7:55 PM 86.0 °F 95.1 °F 75.2 °F 70% 29.99 in 10.0 mi Calm Calm - N/A   Clear
8:15 PM 86.0 °F 95.1 °F 75.2 °F 70% 29.98 in 10.0 mi Calm Calm - N/A   Clear
8:35 PM 86.0 °F 95.1 °F 75.2 °F 70% 29.99 in 10.0 mi Calm Calm - N/A   Clear
8:55 PM 87.8 °F 99.7 °F 77.0 °F 70% 30.00 in 10.0 mi Variable 5.8 mph - N/A   Clear
10:15 PM 87.8 °F 97.6 °F 75.2 °F 66% 30.04 in 10.0 mi WSW 5.8 mph - N/A   Clear
10:35 PM 87.8 °F 99.7 °F 77.0 °F 70% 30.04 in 10.0 mi Variable 4.6 mph - N/A   Scattered Clouds
11:15 PM 78.8 °F - 75.2 °F 89% 30.06 in 3.0 mi NE 38.0 mph 43.7 mph N/A   Mostly Cloudy
11:30 PM 78.8 °F - 75.2 °F 89% 30.07 in 7.0 mi NE 31.1 mph 39.1 mph N/A   Mostly Cloudy